Regional Weather Roundup
Issued by NWS

Home | Current Version | Previous Version | Text Only | Print | Product List | Glossary Off
Versions: 1 2 3 4 5 6 7 8 9 10 11 12 13 14 15 16 17 18 19 20 21 22 23 24 25 26 27 28 29 30 31 32 33 34 35 36 37 38 39 40 41 42 43 44 45 46 47 48 49 50

000
ASUS43 KIND 310009
RWRIN

WEATHER ROUNDUP FOR INDIANA
NATIONAL WEATHER SERVICE INDIANAPOLIS IN
800 PM EDT SAT AUG 30 2014

NOTE: "FAIR" INDICATES FEW OR NO CLOUDS BELOW 12,000 FEET WITH NO
SIGNIFICANT WEATHER AND/OR OBSTRUCTIONS TO VISIBILITY.

* - STATION DOES NOT REPORT WEATHER SUCH AS PRECIPITATION OR FOG.

+ - STATION NOT QUALITY CONTROLLED BY THE NATIONAL WEATHER SERVICE.
    USE DATA WITH CAUTION...ESPECIALLY DEWPOINT AND RELATIVE
    HUMIDITY OBSERVATIONS.

INZ001>003-010>013-019-020-310100-
NORTHWEST INDIANA

CITY           SKY/WX    TMP DP  RH WIND       PRES   REMARKS
GARY /AIRPORT/ MOCLDY    79  72  78 SW6       29.86S
KNOX *+        CLOUDY    77  70  79 SW9       29.88R
LA PORTE +     CLOUDY    75  70  83 SW8       29.89R
6HR MIN TEMP:  75; 6HR MAX TEMP:  80;

MICHIGAN CITY+ MOCLDY    73  68  83 S7        29.87S
MONTICELLO +   CLOUDY    77  71  82 S14G21    29.91R
RENSSELAER +   CLOUDY    73  72  94 S5        29.91R
VALPARAISO     CLOUDY    76  69  79 SW9       29.89R
6HR MIN TEMP:  76; 6HR MAX TEMP:  82; 6HR PCP: TRACE;


$$

LMZ046-743>745-310100-
SOUTHERN LAKE MICHIGAN

STATION/POSITION TIME  TEMP WIND        PRES
                       AIR  DIR/SP/G
                 (UTC) (F)  (DEG/KT/KT) (MB)
MICHIGAN CITY    0000   74  190/ 11/ 13   N/A

$$

INZ004-005-014>016-021>024-310100-
NORTH CENTRAL INDIANA

CITY           SKY/WX    TMP DP  RH WIND       PRES   REMARKS
GOSHEN         CLOUDY    80  70  71 SW9       29.89F
6HR MIN TEMP:  75; 6HR MAX TEMP:  86;

LOGANSPORT +   CLOUDY    75  68  78 S14       29.93R
PERU/GRISSOM   CLOUDY    76  74  91 SW16      29.94S
6HR MIN TEMP:  76; 6HR MAX TEMP:  83;

ROCHESTER +    CLOUDY    79  70  73 S10G22    29.92R
SOUTH BEND     LGT RAIN  75  71  87 S10       29.89S
6HR MIN TEMP:  75; 6HR MAX TEMP:  83; 6HR PCP:  0.01;

WARSAW +       CLOUDY    79  70  73 S7        29.91S

$$

INZ006>009-017-018-025>027-310100-
NORTHEAST INDIANA

CITY           SKY/WX    TMP DP  RH WIND       PRES   REMARKS
ANGOLA *+      PTCLDY    79  72  78 SW14      29.90S
AUBURN +       MOCLDY    79  66  65 SW9       29.92F
FORT WAYNE     CLOUDY    76  69  79 S14       29.94S
6HR MIN TEMP:  76; 6HR MAX TEMP:  83;

HUNTINGTON +   CLOUDY    76  69  79 S8        29.94S
6HR MIN TEMP:  76; 6HR MAX TEMP:  82;


$$

INZ028-029-035-036-043>045-051>053-310100-
WEST CENTRAL INDIANA

CITY           SKY/WX    TMP DP  RH WIND       PRES   REMARKS
GREENCASTLE +  CLOUDY    73  70  88 S6        29.97F
LAFAYETTE      CLOUDY    77  70  79 S8        29.92R
6HR MIN TEMP:  77; 6HR MAX TEMP:  82;

TERRE HAUTE    CLOUDY    76  71  85 S12       29.95S
6HR MIN TEMP:  75; 6HR MAX TEMP:  80; 6HR PCP: TRACE;


$$

INZ030>032-037>040-046>048-054>057-064-065-310100-
CENTRAL INDIANA

CITY           SKY/WX    TMP DP  RH WIND       PRES   REMARKS
CP ATTERBURY + CLOUDY    73  68  83 S10       30.00R
COLUMBUS       MOCLDY    75  72  88 S14       30.00S
FRANKFORT +    CLOUDY    76  70  82 S7        29.95F
GREENWOOD *+   CLOUDY    77  72  83 S12       30.00R
INDIANAPOLIS   CLOUDY    76  69  79 S16       29.96S
6HR MIN TEMP:  76; 6HR MAX TEMP:  78; 6HR PCP: TRACE;

-EAGLE CREEK   CLOUDY    76  69  79 S10       29.96S
6HR MIN TEMP:  76; 6HR MAX TEMP:  79;

KOKOMO *+      CLOUDY    75  66  73 SW15G21   29.95S
MARION +       CLOUDY    75  68  77 S9        29.96S
MT COMFORT *+  CLOUDY    75  73  94 S7        29.99S
SHELBYVILLE    CLOUDY    77  70  79 SW13      29.99S
6HR MIN TEMP:  76; 6HR MAX TEMP:  79;

ZIONSVILLE +   CLOUDY    76  69  77 S10G16    29.97S
6HR MIN TEMP:  76; 6HR MAX TEMP:  81;


$$

INZ033-034-041-042-049-050-058-059-310100-
EAST CENTRAL INDIANA

CITY           SKY/WX    TMP DP  RH WIND       PRES   REMARKS
MUNCIE         CLOUDY    76  69  79 SW12G21   29.97F
6HR MIN TEMP:  76; 6HR MAX TEMP:  81; 6HR PCP: TRACE;


$$

INZ060-061-067>069-081>083-085>088-310100-
SOUTHWEST INDIANA

CITY           SKY/WX    TMP DP  RH WIND       PRES   REMARKS
EVANSVILLE     CLOUDY    72  69  90 S8        29.99F
6HR MIN TEMP:  72; 6HR MAX TEMP:  79; 6HR PCP:  0.17;

WASHINGTON +   CLOUDY    73  71  95 S7        29.98R
6HR MIN TEMP:  73; 6HR MAX TEMP:  79; 6HR PCP:  0.10;


$$

INZ062-063-066-070>080-084-089>092-310100-
SOUTH CENTRAL AND SOUTHEAST INDIANA

CITY           SKY/WX    TMP DP  RH WIND       PRES   REMARKS
BLOOMINGTON    CLOUDY    74  70  87 S10       29.99F
6HR MIN TEMP:  74; 6HR MAX TEMP:  78;

SEYMOUR +      CLOUDY    75  66  73 S8        30.01S

$$




USA.gov is the U.S. government's official web portal to all federal, state and local government web resources and services.